Weather in Ho Chi Minh

Vietnam     10°46′34″N   106°41′41″E
В апреле 2022 года жителям России запретили посещать сайт meteo.paraplan.net по решению Генеральной прокуратуры. Аудитория сайта уменьшилась в 10 раз. Владельцы сайта не видят смысла в поддержке погодного сервера в таких условиях. Сайт будет закрыт в октябре.
temp.,
°C
wind,
m/s
gust,
m/s
humid.,
%
clouds,
%
prec.,
mm/h
press.,
hPa
HPBL,
m
6 october, thu
thu601:00+24ne2493100 5.9 1010158
04:00+24ne1293100 1.1 100997
07:00+24nne2493100 2.3 1011167
10:00+29ne2370100 0.3 1012703
13:00+26s3583100 3.4 1010269
16:00+25s2587100 0.4 1009239
19:00+25nnw2386100 0.4 1011121
22:00+24nne2391100 0.0 1012130
7 october, fri
fri701:00+24nne2392100 0.0 1010122
04:00+24ne239297 0.0 1009109
07:00+25nne138993 0.0 1010153
10:00+31nnw116332 0.0 1011843
13:00+33wnw2153100 0.0 10081716
16:00+29sse347298 1.5 1007415
19:00+26se378796 2.5 1009232
22:00+26ese2489100 0.3 1011122
8 october, sat
sat801:00+25e1289100 0.3 101068
04:00+24nne2291100 0.0 100972
07:00+26n248727 0.0 1011263
10:00+30nnw336636 0.0 10111108
13:00+32nnw1163100 1.7 10081177
16:00+30sse3474100 1.7 1007558
19:00+26sse2689100 3.8 1010200
22:00+26ese2387100 3.8 101264
9 october, sun
sun901:00+25se2390100 4.3 1010109
04:00+24e2695100 0.0 1009265
07:00+24ne1394100 0.1 1011188
10:00+27n3483100 0.1 1012598
13:00+29nne1277100 3.9 1010543
16:00+26s2288100 7.3 100981
19:00+25sw2394100 9.3 1011107
22:00+25nw1193100 1.3 101220
10 october, mon
mon1001:00+25n1193100 1.9 101124
04:00+24ene1193100 0.1 101019
07:00+25n2393100 0.2 1012138
10:00+29nne1172100 0.3 1012835
13:00+29se217799 3.6 1009538
16:00+26sse248897 3.2 1009156
19:00+25sse269087 3.3 1011202
22:00+25se1289100 0.4 101258